www.pogodaiklimat.ru

Погода и климат >> Архив погоды >> Россия >> Чукотка >> Илирней


ПОГОДА в Илирнее

  • Прогноз погоды в Илирнее
  • Монитор погоды в Илирнее
  • Климат города

АРХИВ ПОГОДЫ в Илирнее

Время (UTC), дата Ветер
(напр.,м/с)
 
Видим.   Явления Облачность Т
(С)
Тd
(С)
f
(%)
Тe
(С)
Тes
(С)
Комфортность P
(гПа)
Po
(гПа)
Тmin
(С)
Tmax
(С)
R
(мм)
R24
(мм)
S
(см)
03 14.05 В 5-8
{12}
50 км позёмок {метель} 10/0
[Ac und]
-2.5 -8.1 65 -9 -7 1008.6 964.8
06 14.05 СВ 5
{9}
50 км позёмок {метель} 10/0
[Ac und]
-2.5 -8.1 65 -9 -8 1008.9 965.0
09 14.05 С 1
{6}
50 км {метель} 10/0
[Ac und]
-2.8 -8.1 67 -5 -5 1009.8 965.7 -2.5
12 14.05 СВ 1
{3}
50 км {метель} 10/0
[Ac und]
-4.3 -8.1 75 -6 -6 1010.8 966.6
15 14.05 штиль 0
{3}
50 км 10/0
[Ac und]
-5.8 -8.8 79 -7 -7 1012.2 967.5
18 14.05 штиль 0
{2}
50 км 10/0
[Ac und]
-4.8 -8.0 78 -6 -5 1014.0 969.4
21 14.05 штиль 0
{2}
50 км ясно +0.7 -5.0 66 0 +8 1013.2 969.6 -5.8 50
00 15.05 З 4
{8}
50 км 4/4 600 м
[Sc]
+3.9 -6.1 48 0 +4 1014.3 971.1
03 15.05 З 3
{8}
50 км 6/6 600 м
[Cu med, cong]
+4.8 -7.7 40 +2 +5 1014.9 971.9
06 15.05 ЮЗ 2
{7}
50 км 3/3 600 м
[Cu med, cong]
+5.6 -8.7 35 +4 +6 1015.2 972.3
09 15.05 ЮВ 2
{6}
50 км 3/3 600 м
[Cu med, cong Ci fib]
+2.2 -6.1 54 -0 -0 1015.8 972.4 +2.2
12 15.05 штиль 0
{4}
50 км ясно -2.7 -8.0 67 -3 -3 1017.1 972.9
15 15.05 ЮВ 2
{6}
50 км ясно -1.6 -7.2 66 -5 -5 1016.6 972.6
18 15.05 ЮВ 2
{5}
50 км 8/0
[Cs]
-2.4 -7.6 67 -6 -5 1016.7 972.5
21 15.05 ЮВ 2
{5}
50 км 3/0
[Cs]
-0.0 -6.8 60 -3 +2 1015.7 971.9 -2.7 49
00 16.05 Ю 2
{6}
50 км 6/0
[Cs]
+1.7 -5.2 60 -1 +8 1015.7 972.2
03 16.05 В 3
{6}
50 км 8/0
[Cs]
+2.7 -5.0 57 -1 +5 1015.6 972.2
06 16.05 В 3
{6}
50 км 10/0
[Ac trans Cs]
+2.8 -4.5 59 -1 +1 1015.4 972.0
09 16.05 В 2
{7}
50 км 6/0
[Ac trans Cs]
+1.0 -3.9 70 -2 -2 1015.8 972.3 +2.8
12 16.05 Ю 1
{5}
50 км 10/0
[Ac und]
-1.1 -5.0 75 -3 -3 1016.8 972.8
15 16.05 СВ 1
{4}
50 км 10/0
[Ac und]
-4.7 -7.1 83 -7 -7 1017.0 972.5
18 16.05 СВ 1
{3}
50 км 4/0
[Ac trans]
-4.0 -7.7 75 -6 -5 1015.9 972.4
21 16.05 ЮВ 2
{5}
50 км ясно -0.6 -5.4 70 -4 +2 1015.5 971.7 -4.7 50
00 17.05 В 5
{9}
50 км 10/0
[Ac trans Cs]
+0.9 -3.3 73 -5 -2 1013.9 971.2
03 17.05 В 5
{9}
50 км 8/0
[Cs]
+1.4 -2.7 74 -4 -0 1014.6 971.1
06 17.05 В 6-9
{11}
50 км 5/0
[Cs]
+1.6 -2.8 73 -4 -3 1014.8 971.3
09 17.05 В 3
{9}
50 км 10/0
[Ac trans Cs]
+0.2 -3.1 78 -4 -4 1015.9 972.2 +1.6
12 17.05 В 3
{8}
50 км 10/0
[Ac und]
-0.9 -3.4 83 -6 -6 1016.6 972.8
15 17.05 В 4
{7}
50 км 10/0
[Ac und]
-1.1 -3.7 82 -7 -7 1016.8 972.9
18 17.05 В 2
{6}
50 км 10/0
[Ac und]
0.0 -2.7 82 -4 -3 1016.3 972.6
21 17.05 В 4
{7}
50 км 6/0
[Ac und]
+1.3 -1.9 79 -4 -1 1016.0 972.5 -1.1 49
00 18.05 В 3
{8}
50 км 4/0
[Cs]
+1.6 -2.5 74 -3 +5 1016.3 972.8
03 18.05 В 4
{9}
50 км 8/0
[Ac trans Cs]
+2.2 -2.1 73 -2 +2 1016.0 972.6
06 18.05 В 3
{9}
50 км 1/0
[Cs]
+2.6 -2.3 70 -1 +2 1016.6 973.2
09 18.05 В 3
{8}
50 км 3/0
[Ci]
+1.3 -2.5 76 -3 -3 1017.1 973.5 +2.6
12 18.05 штиль 0
{7}
50 км ясно -1.0 -3.6 82 -2 -2 1018.4 974.3
15 18.05 СВ 1
{5}
50 км ясно -3.4 -4.8 90 -6 -6 1019.1 974.7
18 18.05 штиль 0
{2}
50 км 10/0
[Ac und]
-3.3 -5.7 83 -4 -4 1019.5 975.0
21 18.05 ЮВ 1
{2}
50 км 10/0
[Ac und]
-0.5 -3.6 80 -2 -0 1018.8 974.9 -3.4 50
00 19.05 СВ 1
{3}
50 км 8/0
[Ac trans]
+1.3 -3.2 72 -0 +6 1017.9 974.3
03 19.05 ЮВ 1
{3}
50 км ясно +4.0 -2.9 61 +3 +13 опасность
простуды
1016.9 973.8
06 19.05 В 2
{4}
50 км ясно +3.0 -2.1 69 0 +4 1016.7 973.4
09 19.05 В 2
{5}
50 км 3/0
[Ci fib]
+0.4 -2.6 80 -3 -3 1017.4 973.6 +4.0
12 19.05 В 2
{5}
20 км 10/0
[As op]
-2.5 -3.1 96 -7 -7 1018.4 974.1
15 19.05 В 2
{5}
20 км 10/0
[As op]
-3.4 -4.2 94 -8 -8 1018.5 974.1
18 19.05 В 2
{5}
20 км слабый снег 10/0
[As op]
-4.1 -5.0 93 -8 -8 1018.9 974.3
21 19.05 Ю 1
{3}
50 км {снег} 10/0
[As op]
-1.9 -3.7 87 -4 -3 1017.9 973.8 -3.4 0.0 49
00 20.05 В 1
{3}
50 км 3/0
[Cs]
+2.0 -3.4 67 +1 +12 опасность
простуды
1016.1 972.7
03 20.05 В 2
{4}
50 км 4/0
[Cs]
+3.8 -2.8 62 +1 +10 опасность
простуды
1015.2 972.0
06 20.05 В 2
{4}
50 км ясно +4.4 -2.3 62 +2 +6 1014.5 971.5
09 20.05 В 2
{5}
50 км ясно +3.0 -2.8 66 0 +1 1013.9 970.8 +4.4
12 20.05 СВ 2
{5}
50 км ясно -1.2 -3.8 82 -5 -5 1013.9 970.0
15 20.05 С 1
{3}
50 км ясно -3.6 -5.4 87 -6 -6 1013.0 968.8
18 20.05 ЮВ 1
{2}
50 км 6/0
[Cs]
-5.0 -7.8 81 -7 -6 1012.6 968.1
21 20.05 В 2
{5}
50 км 8/0
[Cs]
+0.7 -3.9 71 -3 +3 1011.1 967.6 -5.0 48
00 21.05 В 3
{6}
50 км 9/0
[Ac trans Cs]
+1.6 -3.2 70 -2 +3 1010.5 967.2

 

Местоположение метеостанции Илирней (Чукотка, Россия): широта 67.25 долгота 167.90 высота над уровнем моря 354 м.

В архиве по умолчанию представлена погода в Илирнее за последнюю неделю. Архивные данные за месяц целиком и за предыдущие месяцы, начиная с января 2011 года, Вы можете получить, выбрав интересующий диапазон дат из раскрывающегося списка и нажав кнопку "Ввод!".


*Определитесь, кто Вы:
робот инопланетянин человек

Внимание! Время в таблицах - всемирное. Для получения местного времени необходимо прибавить поправку, которая в Илирнее равна 12 ч.

Смотрите также архив погоды в соседних городах и на ближайших метеорологических станциях:

Погода в Билибино (Чукотка, Россия) (109 км)
Погода в Баимке (Чукотка, Россия) (180 км)
Погода на Островном (Чукотка, Россия) (187 км)
Погода в Чауне (Чукотка, Россия) (215 км)
Погода в Эньмувееме (Чукотка, Россия) (255 км)
Погода в Раучуе (Чукотка, Россия) (257 км)
Погода в Майской (Чукотка, Россия) (276 км)
Погода в Певеке (Чукотка, Россия) (288 км)
Погода в 21 км (Чукотка, Россия) (290 км)
Погода в Комсомольской (Чукотка, Россия) (291 км)

Пояснения к столбцам:

Ветер - указаны скорость ветра в м/с - средняя за 10 мин, порывы в срок и между сроками (в фигурных скобках) и направление, откуда дует ветер: С - северный, СВ - северо-восточный, В - восточный, ЮВ - юго-восточный, Ю - южный, ЮЗ - юго-западный, З - западный, СЗ - северо-западный.
Видимость - горизонтальная дальность видимости в метрах или километрах. При видимости от 1 до 10 км при отсутствии осадков обычно наблюдается дымка, при ухудшении видимости до 1 км и менее - туман. В сухую погоду видимость может ухудшаться дымом, пылью или мглою.
Явления - указаны атмосферные явления, наблюдавшиеся в срок или в последний час перед сроком; фигурными скобками обозначены явления, наблюдавшиеся между сроками (за 1-3 часа до срока); квадратными скобками обозначены град или гололедные отложения с указанием их диаметра в мм.
Облачность - указаны через наклонную черту общая и нижняя облачность в баллах и высота нижней границы облаков в метрах; квадратными скобками обозначены формы облаков: Ci - перистые, Cs - перисто-слоистые, Cc - перисто-кучевые, Ac - высококучевые, As - высокослоистые, Sc - слоисто-кучевые, Ns - слоисто-дождевые, Cu - кучевые, Cb - кучево-дождевые. Подробнее классификацию облаков см. в Атласе облаков (PDF).
T - Температура воздуха - температура, измеренная на высоте 2 м над землей.
Td - Температура точки росы - температура, при понижении до которой содержащийся в воздухе водяной пар достигнет насыщения.
f - Относительная влажность воздуха - влажноcть воздуха, измеренная на высоте 2 м над землей.
Te - Эффективная температура - температура, которую ощущает одетый по сезону человек в тени. Характеристика душности погоды. При расчете учитывается влияние влажности воздуха и скорости ветра на теплоощущения человека.
Tes - Эффективная температура на солнце - температура, которую ощущает человек, с поправкой на солнечный нагрев. Характеристика знойности погоды. Зависит от высоты солнца над горизонтом, облачности и скорости ветра. Ночью, в пасмурную погоду, а также при ветре 12 м/с и более поправка равна нулю.
P - Атмосферное давление - приведенное к уровню моря атмосферное давление.
Po - Атмосферное давление - измеренное на уровне метеостанции атмосферное давление.
Tmin - Минимальная температура - минимум температуры воздуха на высоте 2 м над землей.
Tmax - Максимальная температура - максимум температуры воздуха на высоте 2 м над землей.
R - Количество осадков - Количество выпавших осадков за период времени, мм. При наведении курсора мыши на число - период времени, за который выпало указанное количество осадков.
R24 - Количество осадков - Количество выпавших осадков за 24 часа, мм.
S - Снежный покров - Высота снежного покрова, см. При наведении курсора мыши на число - состояние снежного покрова и степень покрытия местности в баллах.